sat.trackr.live / text

‹ back to catalog

STARLINK-11440 [DTC]

NORAD 62513 · 2025-004C

PAYLOAD ACTIVE UNKNOWN

§ Identity

Operator
Country
US
Launch date
2025-01-08
Launch site
AFETR
Launch vehicle
Mass (kg)
RCS (m²)

Purposes: comms

External: N2YO · Heavens-Above · Gunter

§ Orbital elements

Epoch: 2026-05-24T21:48:45.453024Z

Period
91.66 min
Inclination
42.9991°
Eccentricity
0.0002148
Mean motion
15.70939222 rev/d
Perigee alt
354.8 km
Apogee alt
357.7 km
Semi-major
6,734.3 km
B*
1.4734e-3
RAAN
331.5026°
Arg perigee
245.2749°
Mean anomaly
114.7896°
Rev number
7,919

§ Raw data

STARLINK-11440 [DTC]1 62513U 25004C   26144.90885941  .00193900  00000+0  14734-2 0  99912 62513  42.9991 331.5026 0002148 245.2749 114.7896 15.70939222 79193

JSON: /api/v1/satellites/62513 · /tle

For live sub-satellite position, see the globe view (requires WebGL).

§ Visibility from observer

Set your observer location to see the next 7 days of passes ≥ 10°. The values pass through the URL so the page stays shareable.

No JS? Fill the form by hand. The geolocation button needs JavaScript.